Overview Statistics Trail Chart Weather Telemetry Raw packets
 

This is the latest recevied weather packets stored in our database for station/object KB1MS. If no packets are shown the sender has not sent any weather packets the latest 10 day(s).

<< 98 99 100 101 102 103 104 >>
Time Temp. Humidity Pressure Rain* Wind** Luminosity Snow
1787874709 22.22° C 78% 1015.6 hPa 0 mm - 0 W/m² -
1787874407 22.22° C 77% 1015.1 hPa 0 mm - 0 W/m² -
1787874102 22.22° C 76% 1015.3 hPa 0 mm - 0 W/m² -
1787873802 22.78° C 75% 1015.2 hPa 0 mm - 1 W/m² -
1787873497 22.78° C 74% 1015.4 hPa 0 mm - 2 W/m² -
1787873192 22.78° C 74% 1015.4 hPa 0 mm - 3 W/m² -
1787872891 22.78° C 73% 1015.3 hPa 0 mm - 4 W/m² -
1787872586 23.33° C 72% 1015.3 hPa 0 mm - 6 W/m² -
1787872281 23.89° C 71% 1015.1 hPa 0 mm - 10 W/m² -
1787871981 24.44° C 69% 1015.4 hPa 0 mm - 16 W/m² -
1787871677 25° C 68% 1015.4 hPa 0 mm - 24 W/m² -
1787871372 25° C 67% 1015.3 hPa 0 mm - 32 W/m² -
1787871067 25.56° C 66% 1015.3 hPa 0 mm - 42 W/m² -
1787870767 25.56° C 65% 1015.3 hPa 0 mm - 50 W/m² -
1787870467 25.56° C 64% 1015.4 hPa 0 mm - 62 W/m² -
1787870162 25° C 66% 1015.6 hPa 0 mm - 60 W/m² -
1787869861 25° C 65% 1015.5 hPa 0 mm - 47 W/m² -
1787869560 25° C 64% 1015.8 hPa 0 mm - 49 W/m² -
1787869255 25° C 64% 1015.8 hPa 0 mm - 55 W/m² -
1787868954 25.56° C 63% 1015.5 hPa 0 mm - 78 W/m² -
1787868649 26.11° C 61% 1015.9 hPa 0 mm - 100 W/m² -
1787868347 26.67° C 61% 1015.7 hPa 0 mm - 138 W/m² -
1787868043 26.67° C 61% 1015.5 hPa 0 mm - 145 W/m² -
1787867738 26.67° C 59% 1015.8 hPa 0 mm - 158 W/m² -
1787867433 26.67° C 60% 1015.6 hPa 0 mm - 135 W/m² -

* Rain latest hour (hover to see other rain measurements)
** Current wind speed in m/s (hover to see current wind gust speed)